ACA006 RJAA-CYUL

Flight info

Callsign ACA006
Flight time N/A
Altitude 31000
Route GULBO2 GULBO Y808 IGARA Y815 MAKMU R580 OPULO/N0490F330 R580 ORVIL/N0479F350 R580 ORCCA DCT SQA DCT BGQ J124 ORT NCA17 TIBOY DCT 65N130W 64N120W 62N110W 5830N10000W/N0483F370 54N090W 49N080W DCT BEMOG LFLER7
Aircraft B77W/H-SDE1E2E3FGHIJ2J3J4J5M1RWXY/LB1D1

Departure

Time N/A
Airport Narita International Airport (RJAA)

Arrival

Time 2026-04-30 19:56
Airport Montreal / Pierre Elliott Trudeau International Airport (CYUL)
Time Latitude Longitude Altitude Speed Heading
2026-04-30 18:25 51.26854 -84.06179 34995 ft 468 kts 130°
2026-04-30 18:25 51.20662 -83.94200 34992 ft 469 kts 130°
2026-04-30 18:26 51.14452 -83.82241 34987 ft 467 kts 130°
2026-04-30 18:27 51.08234 -83.70321 34981 ft 468 kts 130°
2026-04-30 18:28 51.02021 -83.58467 34978 ft 468 kts 130°
2026-04-30 18:28 50.95779 -83.46612 34975 ft 468 kts 130°
2026-04-30 18:29 50.87422 -83.30823 34974 ft 469 kts 131°
2026-04-30 18:30 50.79046 -83.15097 34969 ft 469 kts 131°
2026-04-30 18:31 50.72752 -83.03342 34961 ft 468 kts 131°
2026-04-30 18:32 50.66474 -82.91672 34954 ft 467 kts 131°
2026-04-30 18:33 50.60180 -82.80023 34950 ft 467 kts 131°
2026-04-30 18:33 50.53866 -82.68391 34949 ft 466 kts 131°
2026-04-30 18:34 50.47583 -82.56868 34949 ft 466 kts 131°
2026-04-30 18:35 50.43370 -82.49168 34948 ft 466 kts 131°
2026-04-30 18:35 50.39151 -82.41482 34948 ft 466 kts 131°
2026-04-30 18:36 50.32816 -82.29987 34948 ft 465 kts 132°
2026-04-30 18:37 50.26494 -82.18562 34947 ft 465 kts 132°
2026-04-30 18:37 50.22279 -82.10973 34944 ft 465 kts 132°
2026-04-30 18:38 50.18028 -82.03342 34942 ft 465 kts 132°
2026-04-30 18:38 50.13810 -81.95793 34940 ft 464 kts 132°
2026-04-30 18:39 50.09564 -81.88216 34938 ft 465 kts 132°
2026-04-30 18:39 50.05318 -81.80660 34932 ft 465 kts 132°
2026-04-30 18:40 50.01095 -81.73168 34922 ft 465 kts 132°
2026-04-30 18:40 49.96821 -81.65608 34905 ft 465 kts 132°
2026-04-30 18:41 49.92588 -81.58141 34895 ft 465 kts 132°
2026-04-30 18:41 49.88322 -81.50639 34900 ft 465 kts 132°
2026-04-30 18:42 49.84057 -81.43160 34901 ft 465 kts 132°
2026-04-30 18:42 49.77641 -81.31950 34900 ft 465 kts 133°
2026-04-30 18:45 49.54027 -80.91104 34868 ft 464 kts 133°
2026-04-30 18:46 49.49731 -80.83741 34865 ft 463 kts 133°
2026-04-30 18:46 49.45432 -80.76392 34864 ft 463 kts 133°
2026-04-30 18:47 49.41125 -80.69057 34860 ft 463 kts 133°
2026-04-30 18:47 49.36842 -80.61777 34855 ft 463 kts 133°
2026-04-30 18:48 49.32518 -80.54449 34861 ft 463 kts 133°
2026-04-30 18:48 49.28221 -80.47187 34877 ft 462 kts 134°
2026-04-30 18:49 49.23913 -80.39928 34882 ft 462 kts 134°
2026-04-30 18:49 49.19584 -80.32655 34879 ft 462 kts 134°
2026-04-30 18:50 49.15275 -80.25434 34875 ft 462 kts 134°
2026-04-30 18:50 49.10929 -80.18172 34870 ft 462 kts 134°
2026-04-30 18:51 49.06628 -80.11005 34866 ft 463 kts 134°
2026-04-30 18:51 49.02285 -80.03789 34864 ft 463 kts 134°
2026-04-30 18:52 48.97961 -79.96541 34861 ft 464 kts 134°
2026-04-30 18:52 48.93667 -79.89295 34860 ft 464 kts 134°
2026-04-30 18:53 48.89349 -79.82027 34874 ft 463 kts 134°
2026-04-30 18:53 48.85052 -79.74812 34879 ft 462 kts 134°
2026-04-30 18:54 48.80753 -79.67615 34861 ft 462 kts 134°
2026-04-30 18:54 48.76426 -79.60391 34851 ft 462 kts 134°
2026-04-30 18:55 48.72114 -79.53212 34847 ft 462 kts 134°
2026-04-30 18:55 48.65629 -79.42450 34845 ft 463 kts 134°
2026-04-30 18:56 48.59147 -79.31737 34844 ft 462 kts 135°
2026-04-30 18:57 48.52640 -79.21030 34844 ft 462 kts 135°
2026-04-30 18:57 48.48304 -79.13917 34842 ft 461 kts 135°
2026-04-30 18:58 48.41807 -79.03293 34839 ft 461 kts 135°
2026-04-30 18:59 48.35326 -78.92742 34838 ft 460 kts 135°
2026-04-30 19:00 48.26649 -78.78680 34836 ft 459 kts 135°
2026-04-30 19:01 48.17973 -78.64697 34835 ft 459 kts 135°
2026-04-30 19:02 48.11446 -78.54227 34834 ft 458 kts 135°
2026-04-30 19:03 48.02773 -78.40376 34828 ft 457 kts 135°
2026-04-30 19:04 47.94124 -78.26636 34816 ft 457 kts 136°
2026-04-30 19:05 47.85419 -78.12882 34821 ft 457 kts 136°
2026-04-30 19:06 47.76751 -77.99256 34815 ft 456 kts 136°
2026-04-30 19:06 47.70203 -77.89011 34813 ft 456 kts 136°
2026-04-30 19:07 47.63660 -77.78811 34811 ft 456 kts 136°
2026-04-30 19:08 47.54926 -77.65258 34809 ft 456 kts 136°
2026-04-30 19:09 47.48369 -77.55128 34804 ft 456 kts 136°
2026-04-30 19:09 47.43986 -77.48380 34801 ft 456 kts 136°
2026-04-30 19:10 47.35202 -77.34909 34797 ft 457 kts 137°
2026-04-30 19:11 47.28627 -77.24867 34795 ft 457 kts 137°
2026-04-30 19:12 47.24211 -77.18147 34791 ft 457 kts 137°
2026-04-30 19:12 47.19806 -77.11460 34784 ft 457 kts 137°
2026-04-30 19:13 47.10993 -76.98130 34776 ft 456 kts 137°
2026-04-30 19:14 47.06591 -76.91497 34772 ft 456 kts 137°
2026-04-30 19:14 47.02178 -76.84866 34766 ft 457 kts 137°
2026-04-30 19:15 46.97729 -76.78196 34734 ft 458 kts 137°
2026-04-30 19:15 46.93284 -76.71548 34343 ft 454 kts 137°
2026-04-30 19:15 46.91109 -76.68301 34151 ft 450 kts 137°
2026-04-30 19:16 46.88904 -76.65014 33957 ft 448 kts 137°
2026-04-30 19:16 46.86729 -76.61775 33690 ft 447 kts 137°
2026-04-30 19:16 46.82438 -76.55398 33061 ft 440 kts 137°
2026-04-30 19:17 46.80302 -76.52228 32709 ft 436 kts 137°
2026-04-30 19:17 46.76097 -76.46001 32004 ft 429 kts 137°
2026-04-30 19:17 46.74015 -76.42924 31638 ft 426 kts 138°
2026-04-30 19:18 46.70572 -76.37843 31024 ft 422 kts 138°
2026-04-30 19:18 46.67845 -76.33824 30532 ft 418 kts 139°
2026-04-30 19:18 46.65806 -76.30824 30156 ft 414 kts 139°
2026-04-30 19:19 46.63808 -76.27887 29812 ft 411 kts 139°
2026-04-30 19:19 46.61801 -76.24942 29463 ft 408 kts 139°
2026-04-30 19:19 46.57846 -76.19145 28731 ft 403 kts 139°
2026-04-30 19:20 46.55864 -76.16246 28341 ft 401 kts 139°
2026-04-30 19:20 46.53926 -76.13413 27958 ft 400 kts 139°
2026-04-30 19:20 46.50032 -76.07731 27183 ft 396 kts 139°
2026-04-30 19:21 46.48082 -76.04890 26792 ft 394 kts 139°
2026-04-30 19:21 46.44267 -75.99341 26022 ft 390 kts 139°
2026-04-30 19:22 46.40449 -75.93799 25244 ft 386 kts 139°
2026-04-30 19:22 46.34821 -75.85651 24087 ft 379 kts 139°
2026-04-30 19:23 46.29247 -75.77607 22919 ft 377 kts 139°
2026-04-30 19:24 46.25571 -75.72314 22159 ft 373 kts 139°
2026-04-30 19:24 46.23737 -75.69677 21778 ft 371 kts 139°
2026-04-30 19:24 46.20126 -75.64494 21017 ft 367 kts 139°
2026-04-30 19:25 46.15512 -75.55731 19852 ft 370 kts 121°
2026-04-30 19:26 46.13799 -75.48740 19070 ft 374 kts 106°
2026-04-30 19:26 46.13241 -75.41286 18279 ft 374 kts 99°
2026-04-30 19:26 46.13005 -75.37576 17883 ft 371 kts 100°
2026-04-30 19:27 46.12460 -75.30276 17092 ft 365 kts 102°
2026-04-30 19:27 46.11832 -75.23042 16295 ft 361 kts 102°
2026-04-30 19:28 46.11507 -75.19479 15902 ft 359 kts 102°
2026-04-30 19:28 46.10845 -75.12438 15119 ft 355 kts 102°
2026-04-30 19:29 46.10174 -75.05448 14337 ft 352 kts 102°
2026-04-30 19:29 46.09835 -75.01971 13945 ft 350 kts 102°
2026-04-30 19:30 46.08821 -74.91625 12774 ft 345 kts 102°
2026-04-30 19:30 46.08152 -74.84859 12002 ft 343 kts 102°
2026-04-30 19:31 46.07479 -74.78097 11227 ft 340 kts 101°
2026-04-30 19:31 46.07144 -74.74738 10841 ft 338 kts 101°
2026-04-30 19:31 46.06477 -74.68096 10678 ft 339 kts 101°
2026-04-30 19:32 46.06136 -74.64727 10676 ft 340 kts 101°
2026-04-30 19:32 46.05803 -74.61420 10656 ft 326 kts 101°
2026-04-30 19:32 46.05484 -74.58260 10535 ft 314 kts 101°
2026-04-30 19:32 46.05092 -74.55225 10406 ft 301 kts 108°
2026-04-30 19:33 46.04435 -74.52458 10226 ft 291 kts 116°
2026-04-30 19:33 46.03520 -74.49894 10024 ft 281 kts 125°
2026-04-30 19:33 46.02423 -74.47667 9819 ft 272 kts 133°
2026-04-30 19:33 46.01150 -74.45718 9609 ft 264 kts 140°
2026-04-30 19:34 45.99764 -74.44028 9402 ft 257 kts 143°
2026-04-30 19:34 45.98417 -74.42415 9199 ft 251 kts 143°
2026-04-30 19:34 45.95701 -74.39220 8803 ft 255 kts 144°
2026-04-30 19:35 45.94330 -74.37617 8603 ft 255 kts 144°
2026-04-30 19:35 45.92955 -74.36011 8401 ft 255 kts 144°
2026-04-30 19:35 45.91581 -74.34404 8199 ft 255 kts 144°
2026-04-30 19:35 45.90221 -74.32817 7995 ft 254 kts 144°
2026-04-30 19:36 45.88842 -74.31207 7793 ft 253 kts 144°
2026-04-30 19:36 45.87490 -74.29632 7596 ft 252 kts 145°
2026-04-30 19:36 45.84763 -74.26470 7196 ft 251 kts 145°
2026-04-30 19:37 45.83406 -74.24891 6995 ft 250 kts 144°
2026-04-30 19:37 45.82071 -74.23342 6803 ft 249 kts 145°
2026-04-30 19:37 45.80725 -74.21783 6606 ft 249 kts 145°
2026-04-30 19:37 45.79383 -74.20223 6408 ft 248 kts 145°
2026-04-30 19:38 45.78040 -74.18663 6209 ft 247 kts 145°
2026-04-30 19:38 45.76699 -74.17113 6010 ft 247 kts 145°
2026-04-30 19:38 45.75427 -74.15462 5798 ft 249 kts 131°
2026-04-30 19:38 45.74501 -74.13371 5607 ft 252 kts 123°
2026-04-30 19:39 45.73645 -74.11164 5411 ft 252 kts 122°
2026-04-30 19:39 45.72808 -74.08971 5217 ft 251 kts 122°
2026-04-30 19:39 45.71985 -74.06818 5027 ft 250 kts 122°
2026-04-30 19:39 45.71150 -74.04642 4823 ft 250 kts 122°
2026-04-30 19:40 45.70309 -74.02447 4619 ft 249 kts 123°
2026-04-30 19:40 45.69481 -74.00293 4415 ft 248 kts 122°
2026-04-30 19:40 45.68657 -73.98135 4211 ft 248 kts 123°
2026-04-30 19:40 45.67829 -73.95993 4093 ft 245 kts 123°
2026-04-30 19:41 45.67008 -73.93855 4079 ft 247 kts 123°
2026-04-30 19:41 45.66172 -73.91681 4079 ft 247 kts 123°
2026-04-30 19:41 45.65342 -73.89534 4079 ft 247 kts 123°
2026-04-30 19:41 45.64516 -73.87410 4077 ft 247 kts 123°
2026-04-30 19:42 45.63682 -73.85254 4079 ft 247 kts 123°
2026-04-30 19:42 45.62853 -73.83099 4080 ft 246 kts 123°
2026-04-30 19:42 45.62036 -73.80981 4077 ft 239 kts 123°
2026-04-30 19:42 45.61241 -73.78921 4083 ft 237 kts 123°
2026-04-30 19:43 45.60679 -73.76734 4078 ft 242 kts 101°
2026-04-30 19:43 45.60850 -73.74322 4063 ft 249 kts 71°
2026-04-30 19:43 45.61775 -73.72247 4079 ft 250 kts 48°
2026-04-30 19:44 45.64280 -73.68777 4080 ft 249 kts 42°
2026-04-30 19:44 45.65551 -73.67105 4080 ft 251 kts 42°
2026-04-30 19:44 45.66836 -73.65420 4075 ft 248 kts 42°
2026-04-30 19:44 45.68085 -73.63775 3950 ft 240 kts 42°
2026-04-30 19:45 45.69295 -73.62176 3749 ft 235 kts 42°
2026-04-30 19:45 45.70485 -73.60619 3549 ft 231 kts 42°
2026-04-30 19:45 45.71647 -73.59077 3355 ft 227 kts 43°
2026-04-30 19:45 45.72778 -73.57549 3176 ft 220 kts 43°
2026-04-30 19:46 45.73850 -73.56094 3090 ft 207 kts 43°
2026-04-30 19:46 45.74774 -73.54564 3078 ft 204 kts 67°
2026-04-30 19:46 45.74971 -73.52610 3069 ft 199 kts 105°
2026-04-30 19:46 45.74355 -73.50898 3077 ft 190 kts 133°
2026-04-30 19:47 45.73535 -73.49445 3077 ft 188 kts 134°
2026-04-30 19:47 45.72982 -73.48476 3076 ft 188 kts 134°
2026-04-30 19:47 45.71852 -73.46607 3066 ft 184 kts 148°
2026-04-30 19:47 45.70697 -73.46077 3062 ft 174 kts 188°
2026-04-30 19:48 45.69593 -73.46585 3064 ft 155 kts 204°
2026-04-30 19:48 45.68687 -73.47288 3077 ft 143 kts 216°
2026-04-30 19:48 45.67926 -73.48185 3073 ft 140 kts 221°
2026-04-30 19:48 45.67205 -73.49123 3077 ft 140 kts 222°
2026-04-30 19:49 45.66488 -73.50061 3077 ft 139 kts 222°
2026-04-30 19:49 45.65056 -73.51937 3073 ft 140 kts 222°
2026-04-30 19:49 45.64336 -73.52883 3069 ft 139 kts 222°
2026-04-30 19:50 45.63619 -73.53809 3073 ft 140 kts 222°
2026-04-30 19:50 45.62899 -73.54748 3075 ft 140 kts 222°
2026-04-30 19:50 45.62185 -73.55687 3075 ft 140 kts 222°
2026-04-30 19:50 45.61469 -73.56627 3075 ft 140 kts 222°
2026-04-30 19:51 45.60743 -73.57573 3073 ft 139 kts 222°
2026-04-30 19:51 45.60033 -73.58505 3076 ft 141 kts 222°
2026-04-30 19:51 45.59311 -73.59449 3076 ft 140 kts 222°
2026-04-30 19:51 45.58589 -73.60393 3074 ft 139 kts 222°
2026-04-30 19:52 45.57867 -73.61327 3071 ft 139 kts 222°
2026-04-30 19:52 45.57147 -73.62263 3078 ft 140 kts 222°
2026-04-30 19:52 45.56396 -73.63178 2905 ft 141 kts 217°
2026-04-30 19:52 45.55611 -73.63992 2646 ft 141 kts 216°
2026-04-30 19:53 45.54849 -73.64825 2261 ft 137 kts 222°
2026-04-30 19:53 45.54169 -73.65772 1950 ft 136 kts 226°
2026-04-30 19:53 45.53536 -73.66755 1705 ft 134 kts 226°
2026-04-30 19:53 45.52875 -73.67679 1481 ft 132 kts 223°
2026-04-30 19:54 45.52177 -73.68542 1234 ft 139 kts 222°
2026-04-30 19:54 45.51454 -73.69462 1155 ft 138 kts 223°
2026-04-30 19:54 45.50726 -73.70355 965 ft 135 kts 223°
2026-04-30 19:54 45.50053 -73.71243 720 ft 132 kts 227°
2026-04-30 19:55 45.49376 -73.72161 525 ft 134 kts 228°
2026-04-30 19:55 45.48710 -73.73067 269 ft 131 kts 228°
2026-04-30 19:55 45.48054 -73.73929 129 ft 119 kts 226°
2026-04-30 19:55 45.47528 -73.74640 124 ft 89 kts 223°
2026-04-30 19:56 45.47156 -73.75135 120 ft 54 kts 223°
2026-04-30 19:56 45.46954 -73.75388 120 ft 19 kts 221°
2026-04-30 19:56 45.46869 -73.75492 120 ft 16 kts 215°
2026-04-30 19:56 45.46768 -73.75571 119 ft 17 kts 198°
2026-04-30 19:57 45.46649 -73.75612 117 ft 18 kts 192°
2026-04-30 19:57 45.46526 -73.75648 117 ft 17 kts 191°
2026-04-30 19:57 45.46405 -73.75685 117 ft 17 kts 193°
2026-04-30 19:57 45.46291 -73.75715 116 ft 16 kts 181°
2026-04-30 19:58 45.46172 -73.75711 114 ft 16 kts 179°
2026-04-30 19:58 45.46077 -73.75710 114 ft 11 kts 180°
2026-04-30 19:58 45.46014 -73.75709 114 ft 4 kts 178°
2026-04-30 19:58 45.45994 -73.75708 113 ft 2 kts 178°
2026-04-30 19:59 45.45987 -73.75707 113 ft 0 kts 178°